| time (UTC) | temp C | wind direction | speed KPH | gust KPH | rain 1hr cm | rain 24hr cm | rain mn cm | humidity % | barometer mb |
| 20260504214504 | 24 | 239 | 12.9 | 17.7 | 0.00 | 0.00 | 0.00 | 24 | 997.6 |
| 20260504213004 | 25 | 186 | 14.5 | 25.7 | 0.00 | 0.00 | 0.00 | 22 | 997.5 |
| 20260504211501 | 25 | 148 | 17.7 | 35.4 | 0.00 | 0.00 | 0.00 | 24 | 997.6 |
| 20260504210109 | 24 | 189 | 22.5 | 38.6 | 0.00 | 0.00 | 0.00 | 24 | 997.6 |
| 20260504204609 | 25 | 212 | 14.5 | 29.0 | 0.00 | 0.00 | 0.00 | 24 | 997.8 |
| 20260504203108 | 25 | 219 | 16.1 | 27.4 | 0.00 | 0.00 | 0.00 | 22 | 997.7 |
| 20260504201557 | 26 | 271 | 1.6 | 14.5 | 0.00 | 0.00 | 0.00 | 21 | 997.8 |
| 20260504200055 | 27 | 150 | 3.2 | 12.9 | 0.00 | 0.00 | 0.00 | 20 | 998.1 |
| 20260504194600 | 25 | 174 | 1.6 | 14.5 | 0.00 | 0.00 | 0.00 | 22 | 998.3 |
| 20260504193051 | 25 | 101 | 12.9 | 19.3 | 0.00 | 0.00 | 0.00 | 22 | 998.6 |
| 20260504191547 | 24 | 112 | 3.2 | 16.1 | 0.00 | 0.00 | 0.00 | 25 | 998.9 |
| 20260504190106 | 23 | 116 | 1.6 | 19.3 | 0.00 | 0.00 | 0.00 | 26 | 999.3 |
| 20260504184542 | 24 | 163 | 8.0 | 16.1 | 0.00 | 0.00 | 0.00 | 26 | 999.6 |
| 20260504183039 | 25 | 249 | 4.8 | 17.7 | 0.00 | 0.00 | 0.00 | 26 | 1000.1 |
| 20260504181541 | 22 | 86 | 0.0 | 17.7 | 0.00 | 0.00 | 0.00 | 29 | 1000.2 |
| 20260504180034 | 23 | 119 | 6.4 | 12.9 | 0.00 | 0.00 | 0.00 | 27 | 1000.6 |
| 20260504174530 | 23 | 155 | 8.0 | 16.1 | 0.00 | 0.00 | 0.00 | 28 | 1000.8 |
| 20260504173027 | 22 | 263 | 11.3 | 19.3 | 0.00 | 0.00 | 0.00 | 30 | 1001.2 |
| 20260504171525 | 22 | 252 | 4.8 | 16.1 | 0.00 | 0.00 | 0.00 | 28 | 1001.3 |
| 20260504081524 | 18 | 180 | 6.4 | 14.5 | 0.00 | 0.00 | 0.00 | 36 | 1002.4 |
| 20260504050116 | 22 | 223 | 30.6 | 48.3 | 0.00 | 0.00 | 0.00 | 27 | 1002.6 |
| 20260504044600 | 23 | 226 | 17.7 | 40.2 | 0.00 | 0.00 | 0.00 | 19 | 1002.1 |
| 20260504043110 | 23 | 236 | 12.9 | 22.5 | 0.00 | 0.00 | 0.00 | 18 | 1001.8 |
| 20260504041558 | 23 | 342 | 12.9 | 32.2 | 0.00 | 0.00 | 0.00 | 17 | 1001.4 |
| 20260504040100 | 22 | 245 | 9.7 | 46.7 | 0.00 | 0.00 | 0.00 | 19 | 1001.8 |
| 20260504034600 | 21 | 261 | 0.0 | 3.2 | 0.00 | 0.00 | 0.00 | 22 | 1001.3 |
| 20260504033059 | 21 | 261 | 0.0 | 0.0 | 0.00 | 0.00 | 0.00 | 19 | 1001.2 |
| 20260504031604 | 22 | 262 | 0.0 | 4.8 | 0.00 | 0.00 | 0.00 | 20 | 1001.1 |
| 20260504030055 | 21 | 261 | 0.0 | 3.2 | 0.00 | 0.00 | 0.00 | 20 | 1001.1 |
| 20260504024556 | 22 | 257 | 3.2 | 8.0 | 0.00 | 0.00 | 0.00 | 28 | 1000.9 |
| 20260504023054 | 23 | 190 | 0.0 | 0.0 | 0.00 | 0.00 | 0.00 | 18 | 1000.8 |
| 20260504021554 | 23 | 190 | 0.0 | 0.0 | 0.00 | 0.00 | 0.00 | 16 | 1000.8 |
| 20260504020052 | 24 | 190 | 0.0 | 0.0 | 0.00 | 0.00 | 0.00 | 15 | 1000.9 |
| 20260504014558 | 25 | 190 | 0.0 | 0.0 | 0.00 | 0.00 | 0.00 | 15 | 1000.9 |
| 20260504013058 | 25 | 190 | 0.0 | 0.0 | 0.00 | 0.00 | 0.00 | 15 | 1001.1 |
| 20260504011551 | 25 | 190 | 0.0 | 4.8 | 0.00 | 0.00 | 0.00 | 14 | 1001.1 |
| 20260504010104 | 25 | 190 | 1.6 | 12.9 | 0.00 | 0.00 | 0.00 | 14 | 1001.2 |
| 20260504004548 | 26 | 173 | 4.8 | 12.9 | 0.00 | 0.00 | 0.00 | 14 | 1001.3 |
| 20260504003045 | 26 | 205 | 1.6 | 14.5 | 0.00 | 0.00 | 0.00 | 13 | 1001.7 |
| 20260504001556 | 26 | 196 | 3.2 | 12.9 | 0.00 | 0.00 | 0.00 | 14 | 1001.7 |
| 20260504000047 | 26 | 144 | 1.6 | 11.3 | 0.00 | 0.00 | 0.00 | 11 | 1001.8 |
| 20260503234543 | 26 | 123 | 0.0 | 6.4 | 0.00 | 0.00 | 0.00 | 12 | 1001.8 |
| 20260503233045 | 26 | 144 | 8.0 | 14.5 | 0.00 | 0.00 | 0.00 | 11 | 1002.0 |
| 20260503231543 | 27 | 146 | 9.7 | 24.1 | 0.00 | 0.00 | 0.00 | 11 | 1002.1 |
| 20260503230037 | 27 | 142 | 3.2 | 19.3 | 0.00 | 0.00 | 0.00 | 11 | 1002.4 |
| 20260503224540 | 28 | 184 | 11.3 | 17.7 | 0.00 | 0.00 | 0.00 | 11 | 1002.4 |
| 20260503223034 | 28 | 197 | 6.4 | 12.9 | 0.00 | 0.00 | 0.00 | 11 | 1002.6 |
| 20260503221535 | 28 | 138 | 6.4 | 17.7 | 0.00 | 0.00 | 0.00 | 9 | 1003.0 |
| 20260503220029 | 28 | 219 | 4.8 | 17.7 | 0.00 | 0.00 | 0.00 | 11 | 1003.4 |